Location: ??????
(38.0417°N, 23.0261°E)
Time: 10:09:33
(UTC+00:00)

Daily predictions for brighter satellites

Satellite Brightness Start Highest point End
(mag) Time Altitude Azimuth Time Altitude Azimuth Time Altitude Azimuth
Cosmos 1300 Rocket 3.9 15:35:08 10° SSW 15:39:30 70° W 15:43:53 10° N
Cosmos 1869 3.5 15:36:50 10° SSE 15:40:07 37° E 15:43:23 10° NNE
ISS -2.5 15:37:04 10° WSW 15:40:10 36° NNW 15:43:18 10° NE
CZ-2D R/B 3.6 15:38:02 10° SE 15:40:48 29° ENE 15:43:35 10° N
SJ-12 4.2 15:41:47 10° SE 15:45:17 36° ENE 15:48:47 10° N
IGS 5A 3.5 15:41:31 10° S 15:45:29 83° WSW 15:49:31 10° NNW
COSMO-SKYMED 1 4.0 15:46:51 10° NE 15:49:25 16° E 15:51:58 10° SE
SL-4 R/B 4.1 15:47:14 10° WNW 15:50:09 26° SW 15:53:10 10° S
Cosmos 540 Rocket 4.1 15:47:30 10° N 15:52:08 33° ENE 15:56:42 10° SE
Cosmos 1400 Rocket 4.2 15:51:04 10° SE 15:53:34 17° E 15:56:04 10° NE
CORIOLIS 4.1 15:49:50 10° SSE 15:55:12 82° ENE 16:00:34 10° NNW
Cosmos 1763 Rocket 3.8 15:52:30 10° N 15:57:28 44° ENE 16:02:20 10° SE
Cosmos 1975 Rocket 3.0 15:54:12 10° N 15:58:33 75° E 16:02:55 10° SSE
IRS-1C 4.1 15:55:17 10° SSE 16:00:33 70° ENE 16:05:51 10° N
Cosmos 2151 Rocket 4.5 15:57:36 10° SSE 16:01:26 29° E 16:05:17 10° NNE
SMAP 3.1 15:57:04 10° SSE 16:01:44 90° W 16:06:24 10° NNW
Cosmos 1812 2.4 15:59:05 10° SSE 16:01:49 40° E 16:04:35 10° NNE
OAO 2 Rocket 3.6 15:57:04 10° W 16:02:01 63° S 16:06:56 11° E
Cosmos 44 Rocket 3.2 15:57:54 10° SSW 16:02:36 89° SE 16:07:31 10° NNE
Cosmos 1943 Rocket 2.2 15:58:51 10° SSW 16:04:29 89° WNW 16:10:06 10° NNE
OAO 3 Rocket 3.5 16:00:09 10° WSW 16:04:44 56° S 16:08:48 13° E
Cosmos 2058 3.5 16:06:34 10° NNE 16:10:05 30° ENE 16:13:37 10° SE
Okean 1 Rocket 4.2 16:08:08 10° SE 16:11:35 23° E 16:14:36 12° NE
Aureole 3 Rocket 2.1 16:09:04 10° S 16:12:08 64° E 16:15:11 10° NNE
Cosmos 2278 Rocket 2.3 16:07:17 10° SSW 16:12:56 81° WNW 16:18:37 10° NNE
CZ-2D R/B 4.2 16:09:45 10° SE 16:13:21 30° ENE 16:17:00 10° N
Cosmos 2082 Rocket 2.9 16:08:59 10° N 16:13:57 31° ENE 16:18:53 10° ESE
Landsat 7 3.7 16:09:33 10° SSE 16:14:12 87° E 16:18:52 10° NNW
SKYMED 2 3.8 16:11:09 10° NNE 16:15:22 48° E 16:19:33 10° S
Cosmos 1513 Rocket 4.5 16:14:02 10° S 16:20:21 78° E 16:26:45 10° N
Helios 1A Rocket 3.1 16:18:18 17° NE 16:20:22 33° E 16:23:28 10° SSE
Cosmos 2369 Rocket 3.9 16:21:01 10° SE 16:22:29 13° ESE 16:22:29 13° ESE
Cosmos 2251 Rocket 3.5 16:19:58 10° SSW 16:25:14 85° ESE 16:30:34 10° NNE
Cosmos 371 Rocket 3.5 16:26:19 10° S 16:30:53 47° ESE 16:34:20 17° NE
H-2A R/B 3.5 16:27:56 10° WSW 16:31:36 16° SSW 16:33:33 10° SSE
YAOGAN 1 3.0 16:27:57 10° SE 16:31:50 36° ENE 16:35:44 10° N
Cosmos 304 Rocket 3.9 16:27:36 10° S 16:32:09 51° ESE 16:35:37 17° NNE
SJ 16-02 1.2 16:31:14 10° S 16:35:31 71° ESE 16:39:07 14° NNE
Cosmos 841 Rocket 4.4 16:32:36 10° N 16:37:00 26° ENE 16:37:10 26° ENE
ATLAS 2AS CENTAUR R/B 4.3 16:34:09 10° N 16:37:29 14° NNE 16:38:09 14° NE
Nadezhda 4 Rocket 4.0 16:32:23 10° N 16:38:31 54° E 16:44:33 10° SSE
BREEZE M DEB (TANK) 3.9 16:38:05 10° SSW 16:40:01 18° SSE 16:40:01 18° SSE
ARIANE 5 R/B 3.7 16:38:24 10° S 16:43:06 43° W 16:47:51 10° NNW
Resurs 1-3 3.7 16:39:30 10° SSE 16:43:36 46° ENE 16:47:43 10° N
Cosmos 1656 Rocket 3.9 16:39:27 10° S 16:44:39 45° ESE 16:47:09 28° NE
COSMOS 2406 3.9 16:41:31 10° N 16:46:32 31° ENE 16:47:01 31° ENE
USA 215 3.3 16:42:55 10° SE 16:49:27 79° SW 16:56:01 10° NW
Cosmos 468 Rocket 3.8 16:45:31 10° NNW 16:50:42 73° ENE 16:55:49 10° SSE
Cosmos 1862 2.9 16:47:19 10° N 16:50:56 69° E 16:54:32 10° SSE
Iridium 45 4.4 16:49:18 10° S 16:52:31 59° ESE 16:52:31 59° ESE
MOS 1 Rocket 3.8 16:51:57 10° S 16:56:07 53° W 17:00:26 10° NNW
Okean 2 Rocket 3.0 16:51:46 10° S 16:56:10 86° W 17:00:34 10° N
Cosmos 1428 Rocket 4.4 16:52:01 10° N 16:58:16 65° E 17:04:30 10° SSE
Cosmos 676 Rocket 3.9 16:53:56 10° SSW 16:59:15 87° ESE 17:03:00 20° NNE
Cosmos 489 Rocket 4.4 16:54:01 10° N 17:00:11 58° ENE 17:06:16 10° SSE
Cosmos 1536 Rocket 3.4 16:55:57 10° N 17:00:24 89° E 17:04:47 10° S
H-II Stage 2 3.8 16:47:19 10° WSW 17:00:31 36° SSW 17:02:47 23° SE
ATLAS 5 CENTAUR R/B 4.2 17:01:14 10° WNW 17:05:24 27° WSW 17:10:18 10° S
Meteor 2-3 Rocket 3.8 17:00:58 10° N 17:06:29 49° ENE 17:07:27 44° ESE
USA 281 4.2 17:15:07 27° NNE 17:15:07 27° NNE 17:19:03 10° N
RESURS DK-1 3.9 17:10:01 10° NW 17:13:39 34° WSW 17:17:15 10° S
SPOT 1/Viking Rocket 4.2 17:09:56 10° S 17:14:59 56° W 17:20:05 10° NNW
BlueWalker 3 2.6 17:11:54 10° SW 17:14:33 46° SW 17:14:33 46° SW
ISS -0.8 17:16:57 10° NNW 17:17:12 10° NNW 17:17:12 10° NNW
Cosmos 968 Rocket 3.5 17:16:18 10° S 17:20:39 58° SE 17:20:39 58° SE
Cosmos 1634 Rocket 3.9 17:16:11 10° S 17:22:19 59° E 17:22:50 57° ENE
COSMO-SKYMED 1 3.9 17:21:26 12° N 17:24:50 36° WNW 17:28:36 10° SW
DELTA 2 R/B (1) 3.5 17:22:04 10° WSW 17:27:34 68° SSE 17:27:39 68° SSE
Cosmos 2034 Rocket 4.5 17:28:48 10° SSW 17:34:52 58° W 17:41:02 10° N
OAO 2 Rocket 4.3 17:41:32 10° W 17:45:42 42° SW 17:45:42 42° SW
OAO 3 Rocket 4.3 17:43:05 10° W 17:46:13 38° WSW 17:46:13 38° WSW
Cosmos 1092 Rocket 4.0 17:49:05 10° N 18:02:36 - S 17:54:58 74° WNW
Cosmos 2082 Rocket 3.7 17:52:58 10° NW 17:57:58 34° WSW 18:02:56 10° SSW
Cosmos 2026 Rocket 4.4 17:55:47 10° NNW 18:01:45 59° W 18:07:46 10° S
Cosmos 2369 Rocket 3.4 18:01:19 10° SSW 18:04:20 33° SW 18:04:20 33° SW
ATLAS 2AS CENTAUR R/B 4.4 18:23:19 10° NNW 18:25:35 22° NNW 18:25:35 22° NNW
Cosmos 2344 4.2 18:39:47 10° NW 18:47:32 72° W 18:47:32 72° W
